FW3892 Weather Reports


time (UTC)temp
C
wind
direction
speed
KPH
gust
KPH
rain 1hr
cm
rain 24hr
cm
rain mn
cm
humidity
%
barometer
mb
20260507211503 16 239 1.6 6.4 0.00 0.64 0.56 28 1005.1
20260507204601 17 237 4.8 14.5 0.00 0.69 0.56 27 1004.9
20260507203059 17 153 3.2 9.7 0.00 0.69 0.56 27 1005.0
20260507201609 17 63 3.2 11.3 0.00 0.69 0.56 27 1005.1
20260507200107 18 253 4.8 11.3 0.00 0.69 0.56 25 1005.0
20260507194558 19 54 3.2 9.7 0.00 0.69 0.56 24 1005.2
20260507193056 20 19 3.2 11.3 0.00 0.69 0.56 24 1005.4
20260507191555 20 175 3.2 11.3 0.00 0.69 0.56 23 1005.6
20260507190054 20 141 1.6 12.9 0.00 0.69 0.56 23 1005.6
20260507184554 20 103 4.8 14.5 0.00 0.69 0.56 25 1005.6
20260507183051 20 175 1.6 12.9 0.00 0.69 0.56 25 1005.9
20260507181547 20 294 1.6 6.4 0.00 0.69 0.56 27 1005.9
20260507180048 19 356 4.8 12.9 0.00 0.69 0.56 27 1006.1
20260507174557 19 285 1.6 11.3 0.00 0.69 0.56 27 1006.1
20260507173047 19 350 4.8 16.1 0.00 0.69 0.56 29 1006.1
20260507171556 18 312 3.2 9.7 0.00 0.69 0.56 32 1006.2
20260507170045 18 218 4.8 11.3 0.00 0.69 0.56 32 1006.3
20260507164540 18 133 3.2 12.9 0.00 0.69 0.56 38 1006.4
20260507163038 18 351 3.2 8.0 0.00 0.69 0.56 40 1006.6
20260507161538 18 50 1.6 12.9 0.00 0.69 0.56 44 1006.7
20260507160034 17 54 1.6 12.9 0.00 0.69 0.56 45 1006.9
20260507154535 16 179 4.8 9.7 0.00 0.69 0.56 46 1007.1
20260507153031 16 33 4.8 12.9 0.00 0.69 0.56 50 1007.2
20260507151531 16 1 1.6 8.0 0.00 0.69 0.56 52 1007.2
20260507150029 16 67 1.6 11.3 0.00 0.69 0.56 51 1007.3
20260507144534 15 48 1.6 8.0 0.00 0.69 0.56 55 1007.6
20260507143025 15 65 1.6 6.4 0.00 0.69 0.56 55 1007.7
20260507141521 15 17 1.6 9.7 0.00 0.69 0.56 56 1007.8
20260507140019 13 39 4.8 11.3 0.00 0.69 0.56 59 1007.9
20260507134518 13 166 1.6 6.4 0.00 0.69 0.56 72 1007.9
20260507133015 12 29 3.2 9.7 0.00 0.69 0.56 79 1008.0
20260507131515 11 221 1.6 4.8 0.00 0.69 0.56 88 1007.9
20260507130013 11 214 1.6 6.4 0.00 0.69 0.56 94 1008.1
20260507124513 11 66 1.6 4.8 0.00 0.69 0.56 96 1008.1
20260507123011 10 188 0.0 1.6 0.00 0.69 0.56 96 1008.4
20260507121511 9 139 0.0 1.6 0.00 0.69 0.56 96 1008.3
20260507120010 9 139 0.0 1.6 0.03 0.69 0.56 96 1008.0
20260507114509 8 125 0.0 1.6 0.03 0.69 0.56 96 1008.1
20260507113013 8 118 0.0 0.0 0.08 0.69 0.56 95 1008.1
20260507111509 8 118 0.0 3.2 0.13 0.69 0.56 95 1007.9
20260507110008 8 90 0.0 1.6 0.15 0.66 0.53 95 1007.7
20260507104509 8 87 0.0 1.6 0.18 0.66 0.53 95 1007.6
20260507103005 8 87 0.0 3.2 0.15 0.61 0.48 94 1007.7
20260507101506 8 118 0.0 1.6 0.13 0.56 0.43 94 1007.8
20260507100004 8 115 0.0 3.2 0.08 0.51 0.38 93 1007.7
20260507094504 8 112 0.0 1.6 0.10 0.48 0.36 93 1007.3
20260507093002 8 277 0.0 4.8 0.13 0.46 0.33 92 1007.6
20260507091501 8 177 0.0 4.8 0.15 0.43 0.30 92 1007.2
20260507090058 9 38 0.0 4.8 0.20 0.43 0.30 91 1007.0
20260507084556 10 102 0.0 4.8 0.18 0.38 0.25 90 1007.0
20260507083054 10 69 0.0 1.6 0.20 0.33 0.20 90 1007.0
20260507081552 10 48 0.0 3.2 0.15 0.28 0.15 89 1006.6
20260507080050 11 114 0.0 4.8 0.10 0.23 0.10 87 1007.1
20260507074548 11 189 0.0 4.8 0.08 0.20 0.08 84 1007.0
20260507073044 12 120 0.0 6.4 0.00 0.13 0.00 83 1006.3
20260507071543 12 246 0.0 4.8 0.00 0.13 0.00 85 1006.0
20260507070045 12 359 0.0 4.8 0.00 0.13 0.00 85 1005.8
20260507064541 12 18 0.0 6.4 0.00 0.13 0.00 87 1005.9
20260507063046 12 79 0.0 3.2 0.00 0.13 0.00 89 1006.1
20260507061541 12 100 0.0 4.8 0.00 0.13 0.00 90 1006.0
20260507060047 13 146 0.0 4.8 0.00 0.13 0.00 94 1006.2
20260507054544 13 148 0.0 3.2 0.00 0.13 0.00 95 1006.2
20260507053031 14 148 0.0 3.2 0.00 0.13 0.00 95 1006.2
20260507051531 14 171 0.0 3.2 0.00 0.13 0.00 95 1006.3
20260507050030 14 244 0.0 4.8 0.00 0.13 0.00 95 1006.3
20260507044546 14 203 0.0 3.2 0.00 0.13 0.00 95 1006.2
20260507043029 14 92 0.0 4.8 0.00 0.13 0.00 95 1006.1
20260507041528 14 94 0.0 4.8 0.00 0.13 0.00 95 1006.2
20260507040032 14 125 0.0 4.8 0.00 0.13 0.13 95 1006.4
20260507034528 14 162 0.0 4.8 0.00 0.13 0.13 95 1006.4
20260507033026 14 179 0.0 4.8 0.00 0.13 0.13 95 1006.4
20260507031525 13 164 1.6 4.8 0.00 0.13 0.13 95 1006.2
20260507030026 13 173 0.0 4.8 0.00 0.13 0.13 95 1006.1
20260507024525 13 166 0.0 4.8 0.00 0.13 0.13 95 1006.0
20260507023024 13 178 1.6 4.8 0.00 0.13 0.13 95 1006.0
20260507021523 13 290 0.0 3.2 0.00 0.13 0.13 95 1006.1
20260507020033 13 164 0.0 6.4 0.00 0.13 0.13 95 1006.1
20260507014523 13 248 1.6 4.8 0.00 0.13 0.13 95 1006.2
20260507013021 13 148 1.6 8.0 0.00 0.13 0.13 95 1006.5
20260507011521 13 221 0.0 4.8 0.00 0.13 0.13 95 1006.6
20260507010026 13 315 0.0 4.8 0.00 0.13 0.13 95 1006.7
20260507004526 13 233 0.0 6.4 0.00 0.13 0.13 94 1006.6
20260507003026 13 306 1.6 4.8 0.03 0.13 0.13 94 1006.5
20260507001524 13 272 1.6 11.3 0.03 0.13 0.13 94 1006.5
20260507000055 13 192 1.6 8.0 0.03 0.13 0.13 94 1006.5
20260506234555 13 235 3.2 6.4 0.03 0.13 0.13 94 1006.3
20260506233053 13 174 1.6 8.0 0.00 0.10 0.10 93 1006.2
20260506231552 13 245 4.8 11.3 0.00 0.10 0.10 93 1006.4
20260506230054 13 295 1.6 8.0 0.00 0.10 0.10 93 1006.5
20260506224601 13 201 0.0 4.8 0.03 0.10 0.10 93 1006.4
20260506223049 14 177 1.6 6.4 0.03 0.10 0.10 93 1006.5
20260506221548 14 312 0.0 4.8 0.03 0.10 0.10 92 1006.7
20260506220048 14 161 1.6 8.0 0.03 0.10 0.10 92 1006.8
20260506214604 15 150 3.2 12.9 0.05 0.08 0.08 91 1006.9
20260506213046 15 237 1.6 9.7 0.05 0.08 0.08 91 1007.0